Location: Unspecified
(48.5539°N, 71.6350°W)
Time: 14:54:16
(UTC-05:00)

ISS - Pass Details

Date: 30 January 2019
Orbit: 403 x 411 km, 51.6° (Epoch: 22 February)

Event Time Altitude Azimuth Distance (km) Brightness Sun altitude
Rises 15:59:18 0° 227° (SW) 2,319 2.4 5.2°
Reaches altitude 10° 16:01:25 10° 221° (SW) 1,464 0.9 4.9°
Maximum altitude 16:04:33 42° 148° (SSE) 591 -2.9 4.5°
Drops below altitude 10° 16:07:42 10° 76° (ENE) 1,477 -1.6 4.0°
Sets 16:09:51 0° 70° (ENE) 2,343 -0.6 3.7°
